period_start,C,m1,H,J0,J1,J2,J3,J4,J5,JA,JB,JC,JD,JJ,JK,JN,#
2017-01-07 00:03:13,0.34,14.17,0.00,15.97,19.97,23.74,15.06,51.73,1024.82,2050.00,957.83,1178.13,1323.97,600.17,615.60,45.05,0000 0000 0000 0000 000000
2017-01-07 00:08:14,0.38,14.18,0.00,15.96,19.97,23.73,15.01,51.72,1024.73,2050.00,956.57,1177.12,1322.81,599.66,615.11,45.10,0000 0000 0000 0000 000000
2017-01-07 00:13:16,0.33,14.20,0.00,15.96,19.97,23.71,15.07,51.68,1024.66,2050.01,955.31,1176.11,1321.69,599.81,615.25,45.15,0000 0000 0000 0000 000000
2017-01-07 00:18:17,0.39,14.22,0.00,15.95,19.97,23.72,15.13,51.83,1024.79,2050.01,953.83,1175.07,1320.48,600.08,615.71,45.20,0000 0000 0000 0000 000000
2017-01-07 00:23:18,0.35,14.24,0.00,15.94,19.96,23.51,15.06,51.72,1024.74,2050.01,952.58,1174.01,1319.35,599.94,615.40,45.25,0000 0000 0000 0000 000000
2017-01-07 00:28:20,0.33,14.26,0.00,15.94,19.95,23.68,15.02,51.83,1024.76,2050.04,951.35,1173.01,1318.19,599.79,615.20,45.30,0000 0000 0000 0000 000000
2017-01-07 00:33:22,0.36,14.28,0.00,15.94,19.94,23.71,15.07,51.85,1024.85,2050.01,949.93,1172.00,1317.04,599.90,615.36,45.35,0000 0000 0000 0000 000000
2017-01-07 00:38:23,0.38,14.29,0.00,15.93,19.94,23.71,15.11,51.74,1024.54,2050.02,948.65,1170.97,1315.87,599.78,615.11,45.41,0000 0000 0000 0000 000000
2017-01-07 00:43:24,0.37,14.31,0.00,15.93,19.94,23.61,15.03,51.73,1024.64,2050.04,947.33,1169.91,1314.67,600.18,615.49,45.46,0000 0000 0000 0000 000000
2017-01-07 00:48:25,0.40,14.33,0.00,15.93,19.94,23.61,15.07,51.79,1024.61,2050.04,945.86,1168.85,1313.43,599.98,615.34,45.51,0000 0000 0000 0000 000000
2017-01-07 00:53:27,0.42,14.35,0.00,15.93,19.94,23.66,15.10,51.93,1024.63,2050.05,944.45,1167.70,1312.16,600.05,615.51,45.56,0000 0000 0000 0000 000000
2017-01-07 00:58:28,0.44,14.37,0.00,15.93,19.93,23.65,15.08,51.76,1024.52,2050.05,942.94,1166.51,1310.78,599.88,615.28,45.61,0000 0000 0000 0000 000000
2017-01-07 01:03:29,0.42,14.40,0.00,15.91,19.92,23.68,15.11,51.91,1024.47,2050.02,941.21,1165.31,1309.46,600.23,615.74,45.66,0000 0000 0000 0000 000000
2017-01-07 01:08:31,0.50,14.42,0.00,15.92,19.92,23.66,15.07,52.24,1024.49,2050.05,939.38,1163.91,1307.99,600.20,615.57,45.71,0000 0000 0000 0000 000000
2017-01-07 01:13:32,0.54,14.45,0.00,15.89,19.92,23.65,15.10,52.32,1024.45,2050.09,937.58,1162.56,1306.47,600.25,615.75,45.76,0000 0000 0000 0000 000000
2017-01-07 01:18:33,0.61,14.48,0.00,15.90,19.92,23.66,15.10,52.48,1024.45,2050.12,935.59,1160.90,1304.52,600.06,615.48,45.81,0000 0000 0000 0000 000000
2017-01-07 01:23:35,0.70,14.51,0.00,15.89,19.92,23.62,15.15,52.42,1024.44,2050.12,933.03,1159.01,1302.38,599.89,615.38,45.86,0000 0000 0000 0000 000000
2017-01-07 01:28:36,0.63,14.54,0.33,15.88,19.92,23.67,15.00,52.23,1024.44,2050.06,930.68,1157.12,1300.30,599.97,615.40,45.91,0000 0000 0000 0000 000000
2017-01-07 01:33:38,0.61,14.58,1.00,15.89,19.91,23.65,15.12,52.16,1024.45,2050.10,928.50,1155.53,1298.47,600.23,615.63,45.96,0000 0000 0000 0000 000000
2017-01-07 01:38:39,0.68,14.61,1.00,15.89,19.92,23.68,15.08,52.16,1024.44,2050.11,926.18,1153.74,1296.54,599.73,615.14,46.01,0000 0000 0000 0000 000000
2017-01-07 01:43:41,0.69,14.64,1.00,15.90,19.92,23.67,15.14,52.17,1024.44,2050.09,923.64,1151.77,1294.47,600.11,615.42,46.06,0000 0000 0000 0000 000000
2017-01-07 01:48:42,0.52,14.67,1.00,15.89,19.92,23.67,15.05,52.17,1024.43,2050.09,921.59,1150.40,1292.79,599.69,615.16,46.11,0000 0000 0000 0000 000000
2017-01-07 01:53:43,0.45,14.70,1.00,15.88,19.92,23.58,15.02,52.15,1024.43,2050.12,919.92,1149.05,1291.26,599.97,615.39,46.16,0000 0000 0000 0000 000000
2017-01-07 01:58:44,0.48,14.72,1.00,15.88,19.92,23.66,15.05,52.17,1024.43,2050.12,918.46,1147.76,1289.72,599.70,615.38,46.21,0000 0000 0000 0000 000000
2017-01-07 02:03:45,0.42,14.74,1.00,15.86,19.92,23.65,15.03,52.09,1024.43,2050.10,916.94,1146.59,1288.46,599.83,615.30,46.26,0000 0000 0000 0000 000000
2017-01-07 02:08:47,0.42,14.76,1.00,15.88,19.92,23.64,15.04,52.23,1024.43,2050.07,915.45,1145.45,1287.15,600.02,615.44,46.31,0000 0000 0000 0000 000000
2017-01-07 02:13:48,0.34,14.78,1.00,15.88,19.92,23.62,15.14,52.26,1024.43,2050.04,914.18,1144.48,1285.99,599.79,615.22,46.37,0000 0000 0000 0000 000000
2017-01-07 02:18:50,0.43,14.80,1.00,15.87,19.92,23.67,15.06,52.36,1024.43,2050.07,912.79,1143.41,1284.67,600.12,615.55,46.42,0000 0000 0000 0000 000000
2017-01-07 02:23:51,0.39,14.82,1.00,15.86,19.92,23.65,15.12,52.19,1024.39,2050.05,911.44,1142.21,1283.49,599.98,615.52,46.47,0000 0000 0000 0000 000000
2017-01-07 02:28:53,0.36,14.84,0.60,15.86,19.92,23.64,15.13,52.11,1024.34,2050.05,910.05,1141.14,1282.31,600.16,615.63,46.52,0000 0000 0000 0000 000000
2017-01-07 02:33:54,0.33,14.86,0.00,15.87,19.92,23.61,15.03,52.20,1024.38,2050.05,908.95,1140.12,1281.11,599.70,615.05,46.57,0000 0000 0000 0000 000000
2017-01-07 02:38:55,0.68,14.89,0.00,15.85,19.92,23.67,15.15,52.09,1024.31,2050.05,907.08,1138.62,1279.39,600.03,615.41,46.62,0000 0000 0000 0000 000000
2017-01-07 02:43:57,1.00,14.93,0.00,15.86,19.92,23.66,15.13,52.10,1024.20,2050.04,903.79,1136.10,1276.67,599.87,615.19,46.67,0000 0000 0000 0000 000000
2017-01-07 02:48:58,1.05,14.99,0.00,15.86,19.92,23.70,15.01,52.02,1024.39,2050.02,900.14,1133.30,1273.60,599.54,614.93,46.72,0000 0000 0000 0000 000000
2017-01-07 02:53:59,0.96,15.04,0.00,15.85,19.91,23.65,15.13,51.95,1024.39,2050.01,896.76,1130.63,1270.65,600.11,615.58,46.77,0000 0000 0000 0000 000000
2017-01-07 02:59:00,0.74,15.08,0.40,15.85,19.90,23.68,15.10,51.98,1024.37,2050.03,894.02,1128.54,1268.29,599.93,615.41,46.82,0000 0000 0000 0000 000000
2017-01-07 03:04:02,0.54,15.11,1.00,15.85,19.89,23.66,15.20,52.05,1024.37,2050.02,892.07,1126.97,1266.55,600.21,615.65,46.87,0000 0000 0000 0000 000000
2017-01-07 03:09:03,0.49,15.14,1.00,15.86,19.89,23.63,15.13,52.06,1024.33,2050.03,890.44,1125.64,1265.02,600.08,615.49,46.92,0000 0000 0000 0000 000000
2017-01-07 03:14:05,0.58,15.16,1.00,15.87,19.89,23.62,15.08,51.95,1024.32,2050.02,888.52,1124.16,1263.43,599.80,615.29,46.97,0000 0000 0000 0000 000000
2017-01-07 03:19:06,0.80,15.20,1.00,15.86,19.88,23.64,15.06,51.99,1024.18,2050.01,885.93,1122.18,1261.22,599.76,614.98,47.02,0000 0000 0000 0000 000000
2017-01-07 03:24:08,0.66,15.24,1.00,15.86,19.87,23.62,15.08,52.01,1024.04,2050.00,883.58,1120.37,1259.25,599.72,614.87,47.07,0000 0000 0000 0000 000000
2017-01-07 03:29:09,0.79,15.27,1.00,15.85,19.87,23.59,15.06,51.97,1023.96,2050.01,881.12,1118.40,1257.06,599.95,615.12,47.12,0000 0000 0000 0000 000000
2017-01-07 03:34:10,0.84,15.32,1.00,15.85,19.87,23.58,15.03,51.96,1024.00,2050.01,878.31,1116.21,1254.63,599.91,615.02,47.17,0000 0000 0000 0000 000000
2017-01-07 03:39:12,0.72,15.36,1.00,15.84,19.85,23.57,15.08,52.00,1023.96,2050.01,875.77,1114.26,1252.47,599.78,615.00,47.23,0000 0000 0000 0000 000000
2017-01-07 03:44:13,0.66,15.39,1.00,15.83,19.85,23.59,15.07,52.05,1023.96,2050.03,873.58,1112.57,1250.60,600.08,615.32,47.28,0000 0000 0000 0000 000000
2017-01-07 03:49:15,0.65,15.42,1.00,15.85,19.84,23.59,15.05,52.17,1023.96,2050.02,871.43,1110.88,1248.78,599.90,615.06,47.33,0000 0000 0000 0000 000000
2017-01-07 03:54:16,0.73,15.46,1.00,15.84,19.84,23.59,15.08,52.21,1023.96,2050.03,869.14,1109.05,1246.74,600.12,615.33,47.38,0000 0000 0000 0000 000000
2017-01-07 03:59:17,0.73,15.50,1.00,15.83,19.84,23.59,15.07,52.15,1023.96,2050.05,866.75,1107.17,1244.58,600.02,615.31,47.43,0000 0000 0000 0000 000000
2017-01-07 04:04:18,0.69,15.53,1.00,15.83,19.84,23.58,15.21,52.20,1023.97,2050.02,864.45,1105.26,1242.40,600.17,615.47,47.48,0000 0000 0000 0000 000000
2017-01-07 04:09:19,0.65,15.57,1.00,15.82,19.84,23.59,15.08,52.15,1023.98,2050.02,862.18,1103.57,1240.55,600.05,615.12,47.53,0000 0000 0000 0000 000000
2017-01-07 04:14:21,0.57,15.60,1.00,15.82,19.84,23.62,15.12,52.06,1024.07,2050.05,860.40,1102.05,1238.81,599.95,615.22,47.58,0000 0000 0000 0000 000000
2017-01-07 04:19:22,0.48,15.62,1.00,15.82,19.84,23.59,15.13,52.13,1024.04,2050.05,858.82,1100.82,1237.54,599.88,615.30,47.63,0000 0000 0000 0000 000000
2017-01-07 04:24:24,0.58,15.65,1.00,15.82,19.84,23.61,15.13,52.34,1024.04,2050.02,857.08,1099.46,1235.92,599.79,615.07,47.68,0000 0000 0000 0000 000000
2017-01-07 04:29:25,0.69,15.68,1.00,15.82,19.84,23.61,15.15,52.23,1024.08,2050.08,855.02,1097.76,1234.10,599.91,615.26,47.73,0000 0000 0000 0000 000000
2017-01-07 04:34:27,0.62,15.72,1.00,15.80,19.84,23.60,15.12,52.26,1024.03,2050.04,852.87,1096.09,1232.22,599.86,615.23,47.78,0000 0000 0000 0000 000000
2017-01-07 04:39:28,0.64,15.75,1.00,15.80,19.84,23.59,15.09,52.12,1024.13,2050.06,850.85,1094.52,1230.45,599.59,614.87,47.83,0000 0000 0000 0000 000000
2017-01-07 04:44:30,0.65,15.78,1.00,15.81,19.84,23.58,15.04,52.17,1024.20,2050.06,848.91,1092.86,1228.65,600.09,615.41,47.88,0000 0000 0000 0000 000000
2017-01-07 04:49:31,0.66,15.81,1.00,15.82,19.83,23.59,15.13,52.17,1024.17,2050.08,846.71,1091.28,1226.86,599.99,615.44,47.93,0000 0000 0000 0000 000000
2017-01-07 04:54:32,0.62,15.85,1.00,15.81,19.82,23.49,15.12,52.23,1024.37,2050.07,844.84,1089.68,1225.08,600.19,615.64,47.98,0000 0000 0000 0000 000000
2017-01-07 04:59:34,0.56,15.88,1.00,15.80,19.82,23.58,15.02,52.25,1024.37,2050.06,842.93,1088.24,1223.45,599.78,615.32,48.03,0000 0000 0000 0000 000000
2017-01-07 05:04:35,0.44,15.90,1.00,15.80,19.82,23.56,15.18,52.30,1024.39,2050.05,841.32,1087.05,1222.06,600.30,615.79,48.08,0000 0000 0000 0000 000000
2017-01-07 05:09:36,0.37,15.92,1.00,15.79,19.82,23.59,15.15,52.36,1024.43,2050.08,840.06,1086.17,1221.03,600.26,615.78,48.14,0000 0000 0000 0000 000000
2017-01-07 05:14:38,0.37,15.94,1.00,15.80,19.82,23.56,15.07,52.24,1024.43,2050.07,838.92,1085.27,1219.95,599.98,615.42,48.19,0000 0000 0000 0000 000000
2017-01-07 05:19:39,0.35,15.96,1.00,15.79,19.82,23.52,15.17,52.37,1024.43,2050.09,837.88,1084.32,1218.96,600.08,615.77,48.24,0000 0000 0000 0000 000000
2017-01-07 05:24:40,0.36,15.98,1.00,15.79,19.82,23.59,15.06,52.42,1024.43,2050.18,836.83,1083.56,1218.02,599.93,615.64,48.29,0000 0000 0000 0000 000000
2017-01-07 05:29:41,0.33,16.00,0.43,15.80,19.82,23.42,15.12,52.47,1024.43,2050.22,835.77,1082.71,1217.07,600.30,615.86,48.34,0000 0000 0000 0000 000000
2017-01-07 05:34:43,0.27,16.01,0.00,15.79,19.82,23.62,15.04,52.39,1024.43,2050.18,834.84,1081.87,1216.11,600.01,615.57,48.39,0000 0000 0000 0000 000000
2017-01-07 05:39:44,0.36,16.03,0.00,15.80,19.83,23.50,15.16,52.46,1024.43,2050.27,833.83,1081.00,1215.15,599.93,615.52,48.44,0000 0000 0000 0000 000000
2017-01-07 05:44:45,0.40,16.05,0.00,15.81,19.84,23.58,15.14,52.63,1024.43,2050.28,832.71,1080.10,1214.24,600.25,615.71,48.49,0000 0000 0000 0000 000000
2017-01-07 05:49:47,0.32,16.06,0.00,15.82,19.84,23.59,15.11,52.57,1024.40,2050.18,831.68,1079.23,1213.29,599.89,615.49,48.54,0000 0000 0000 0000 000000
2017-01-07 05:54:48,0.36,16.08,0.00,15.79,19.84,23.54,15.14,52.46,1024.33,2050.18,830.74,1078.23,1212.08,600.23,615.81,48.59,0000 0000 0000 0000 000000
2017-01-07 05:59:49,0.45,16.11,0.00,15.79,19.84,23.60,15.10,52.46,1024.30,2050.17,829.42,1077.08,1210.73,599.49,615.01,48.64,0000 0000 0000 0000 000000
2017-01-07 06:04:50,0.44,16.13,0.00,15.78,19.83,23.60,15.09,52.21,1024.25,2050.10,828.01,1075.98,1209.51,599.83,615.30,48.69,0000 0000 0000 0000 000000
2017-01-07 06:09:52,0.46,16.15,0.00,15.78,19.83,23.60,15.12,52.30,1024.17,2050.05,826.63,1074.87,1208.33,599.95,615.35,48.74,0000 0000 0000 0000 000000
2017-01-07 06:14:53,0.45,16.17,0.00,15.78,19.82,23.51,15.01,52.05,1024.13,2050.05,825.25,1073.75,1207.03,599.74,615.27,48.79,0000 0000 0000 0000 000000
2017-01-07 06:19:54,0.48,16.20,0.00,15.78,19.82,23.49,15.11,52.23,1024.17,2050.06,823.82,1072.64,1205.75,600.16,615.62,48.84,0000 0000 0000 0000 000000
2017-01-07 06:24:56,0.45,16.22,0.00,15.78,19.82,23.56,15.18,52.33,1023.99,2050.05,822.46,1071.59,1204.57,600.37,615.67,48.89,0000 0000 0000 0000 000000
2017-01-07 06:29:57,0.37,16.24,0.00,15.79,19.82,23.58,15.10,52.30,1023.98,2050.03,821.33,1070.61,1203.49,600.13,615.45,48.94,0000 0000 0000 0000 000000
2017-01-07 06:34:58,0.34,16.26,0.00,15.77,19.82,23.57,15.14,52.31,1023.99,2050.03,820.17,1069.76,1202.47,600.22,615.47,48.99,0000 0000 0000 0000 000000
2017-01-07 06:40:00,0.31,16.28,0.00,15.76,19.80,23.60,15.07,52.23,1023.96,2050.03,819.15,1068.92,1201.50,600.35,615.88,49.04,0000 0000 0000 0000 000000
2017-01-07 06:45:01,0.35,16.29,0.00,15.76,19.79,23.48,15.10,52.32,1023.94,2050.03,818.10,1068.03,1200.59,599.97,615.48,49.10,0000 0000 0000 0000 000000
2017-01-07 06:50:02,0.36,16.31,0.00,15.75,19.79,23.38,15.05,52.36,1023.94,2050.06,817.07,1067.15,1199.63,600.02,615.36,49.15,0000 0000 0000 0000 000000
2017-01-07 06:55:03,0.37,16.33,0.00,15.77,19.79,23.53,15.06,52.35,1023.95,2050.08,816.02,1066.30,1198.59,599.79,615.08,49.20,0000 0000 0000 0000 000000
2017-01-07 07:00:05,0.37,16.35,0.00,15.75,19.79,23.55,15.10,52.44,1023.96,2050.14,814.97,1065.48,1197.65,600.13,615.53,49.25,0000 0000 0000 0000 000000
2017-01-07 07:05:06,0.32,16.37,0.00,15.77,19.78,23.55,15.05,52.31,1023.95,2050.16,813.95,1064.66,1196.73,600.02,615.39,49.30,0000 0000 0000 0000 000000
2017-01-07 07:10:08,0.31,16.39,0.00,15.75,19.77,23.53,15.07,52.42,1023.95,2050.29,812.97,1063.88,1195.84,600.20,615.63,49.35,0000 0000 0000 0000 000000
2017-01-07 07:15:09,0.36,16.41,0.00,15.76,19.77,23.50,15.08,52.41,1023.97,2050.50,812.01,1063.05,1194.89,599.64,615.12,49.40,0000 0000 0000 0000 000000
2017-01-07 07:20:10,0.40,16.42,0.00,15.75,19.77,23.52,15.02,52.25,1024.05,2050.68,811.02,1062.21,1193.98,599.82,615.33,49.45,0000 0000 0000 0000 000000
2017-01-07 07:25:11,0.35,16.44,0.00,15.75,19.77,23.50,15.08,52.42,1024.13,2050.63,809.98,1061.44,1193.08,599.70,615.23,49.50,0000 0000 0000 0000 000000
2017-01-07 07:30:12,0.35,16.46,0.00,15.73,19.75,23.42,15.09,52.28,1024.14,2050.77,808.99,1060.71,1192.19,600.17,615.72,49.55,0000 0000 0000 0000 000000
2017-01-07 07:35:14,0.32,16.48,0.00,15.73,19.74,23.42,15.13,52.26,1024.23,2050.86,808.06,1059.95,1191.29,600.30,615.88,49.60,0000 0000 0000 0000 000000
2017-01-07 07:40:15,0.35,16.49,0.00,15.73,19.74,23.49,15.14,52.27,1024.26,2050.93,807.14,1059.10,1190.42,600.09,615.71,49.65,0000 0000 0000 0000 000000
2017-01-07 07:45:16,0.36,16.51,0.00,15.75,19.74,23.49,15.01,52.29,1024.14,2050.94,806.13,1058.32,1189.57,599.65,615.16,49.70,0000 0000 0000 0000 000000
2017-01-07 07:50:17,0.32,16.52,0.00,15.74,19.74,23.45,15.13,52.37,1024.24,2050.96,805.20,1057.61,1188.67,600.22,615.86,49.75,0000 0000 0000 0000 000000
2017-01-07 07:55:18,0.27,16.54,0.00,15.74,19.73,23.47,15.11,52.42,1024.34,2050.97,804.25,1056.87,1187.82,599.91,615.51,49.80,0000 0000 0000 0000 000000
2017-01-07 08:00:20,0.33,16.56,0.00,15.74,19.72,23.49,15.03,52.48,1024.41,2050.97,803.28,1056.06,1186.97,599.56,615.24,49.85,0000 0000 0000 0000 000000
2017-01-07 08:05:21,0.36,16.58,0.00,15.72,19.72,23.52,15.07,52.46,1024.43,2050.98,802.37,1055.22,1186.10,599.88,615.55,49.90,0000 0000 0000 0000 000000
2017-01-07 08:10:22,0.35,16.59,0.00,15.72,19.72,23.49,15.09,52.41,1024.42,2050.98,801.48,1054.50,1185.20,599.62,615.50,49.95,0000 0000 0000 0000 000000
2017-01-07 08:15:23,0.25,16.60,0.00,15.72,19.72,23.47,15.17,52.41,1024.43,2050.98,800.65,1053.83,1184.39,600.13,615.83,50.01,0000 0000 0000 0000 000000
2017-01-07 08:20:25,0.29,16.62,0.00,15.71,19.72,23.45,15.11,52.50,1024.43,2050.98,799.76,1053.04,1183.53,600.23,616.06,50.06,0000 0000 0000 0000 000000
2017-01-07 08:25:26,0.31,16.64,0.00,15.71,19.72,23.48,15.08,52.47,1024.43,2050.98,798.86,1052.25,1182.65,599.95,615.72,50.11,0000 0000 0000 0000 000000
2017-01-07 08:30:27,0.32,16.65,0.00,15.71,19.72,23.43,14.97,52.50,1024.44,2050.98,797.89,1051.60,1181.83,599.45,615.32,50.16,0000 0000 0000 0000 000000
2017-01-07 08:35:29,0.27,16.67,0.00,15.72,19.71,23.48,15.10,52.52,1024.43,2050.96,796.95,1050.86,1180.96,599.73,615.57,50.21,0000 0000 0000 0000 000000
2017-01-07 08:40:30,0.34,16.69,0.00,15.71,19.72,23.46,15.13,52.65,1024.43,2050.98,795.98,1050.05,1180.09,599.97,615.85,50.26,0000 0000 0000 0000 000000
2017-01-07 08:45:31,0.37,16.70,0.00,15.69,19.72,23.42,15.10,52.61,1024.43,2050.98,795.01,1049.26,1179.28,599.87,615.70,50.31,0000 0000 0000 0000 000000
2017-01-07 08:50:32,0.31,16.72,0.00,15.69,19.72,23.50,15.08,52.65,1024.43,2050.99,794.11,1048.67,1178.47,599.87,615.70,50.36,0000 0000 0000 0000 000000
2017-01-07 08:55:34,0.32,16.73,0.00,15.69,19.72,23.48,15.11,52.58,1024.43,2050.99,793.33,1047.84,1177.49,599.79,615.71,50.41,0000 0000 0000 0000 000000
2017-01-07 09:00:35,0.34,16.75,0.00,15.69,19.72,23.44,15.05,52.59,1024.43,2050.98,792.34,1046.99,1176.54,599.88,615.64,50.46,0000 0000 0000 0000 000000
2017-01-07 09:05:36,0.36,16.77,0.00,15.69,19.72,23.46,15.15,52.59,1024.43,2050.98,791.41,1046.09,1175.60,600.01,615.83,50.51,0000 0000 0000 0000 000000
2017-01-07 09:10:37,0.32,16.79,0.00,15.68,19.72,23.53,15.10,52.70,1024.43,2050.99,790.51,1045.37,1174.73,600.00,615.83,50.56,0000 0000 0000 0000 000000
2017-01-07 09:15:38,0.30,16.80,0.00,15.69,19.72,23.46,15.11,52.69,1024.43,2050.98,789.57,1044.69,1173.91,600.15,615.67,50.61,0000 0000 0000 0000 000000
2017-01-07 09:20:40,0.28,16.82,0.00,15.68,19.72,23.47,15.18,52.73,1024.43,2050.97,788.67,1043.95,1173.05,600.31,616.05,50.66,0000 0000 0000 0000 000000
2017-01-07 09:25:41,0.31,16.84,0.00,15.68,19.72,23.49,15.19,52.68,1024.43,2050.97,787.81,1043.13,1172.19,600.07,615.86,50.71,0000 0000 0000 0000 000000
2017-01-07 09:30:42,0.31,16.85,0.00,15.69,19.72,23.43,15.10,52.50,1024.43,2050.99,786.92,1042.51,1171.38,600.11,615.83,50.76,0000 0000 0000 0000 000000
2017-01-07 09:35:43,0.27,16.87,0.00,15.68,19.71,23.47,15.18,52.57,1024.44,2050.99,786.02,1041.85,1170.60,600.37,616.08,50.81,0000 0000 0000 0000 000000
2017-01-07 09:40:44,0.31,16.88,0.00,15.67,19.70,23.41,15.12,52.67,1024.43,2050.98,785.10,1041.05,1169.81,599.78,615.64,50.86,0000 0000 0000 0000 000000
2017-01-07 09:45:46,0.35,16.90,0.00,15.67,19.69,23.52,15.12,52.65,1024.43,2050.99,784.17,1040.30,1168.96,600.06,615.92,50.91,0000 0000 0000 0000 000000
2017-01-07 09:50:47,0.33,16.91,0.00,15.66,19.69,23.50,15.05,52.49,1024.44,2050.98,783.29,1039.59,1168.07,599.85,615.80,50.97,0000 0000 0000 0000 000000
2017-01-07 09:55:48,0.29,16.93,0.00,15.67,19.69,23.39,15.08,52.56,1024.45,2050.99,782.40,1038.91,1167.23,600.11,615.97,51.02,0000 0000 0000 0000 000000
2017-01-07 10:00:50,0.35,16.95,0.00,15.67,19.69,23.46,15.15,52.72,1024.44,2050.98,781.46,1038.08,1166.44,600.16,616.08,51.07,0000 0000 0000 0000 000000
2017-01-07 10:05:51,0.35,16.96,0.00,15.69,19.69,23.47,15.09,52.73,1024.43,2050.98,780.53,1037.32,1165.66,600.05,615.94,51.12,0000 0000 0000 0000 000000
2017-01-07 10:10:52,0.22,16.98,0.00,15.68,19.69,23.42,15.06,52.71,1024.43,2050.96,779.79,1036.72,1164.83,599.79,615.65,51.17,0000 0000 0000 0000 000000
2017-01-07 10:15:54,0.28,17.00,0.00,15.67,19.69,23.45,15.10,52.75,1024.43,2050.98,778.87,1036.01,1164.03,600.28,616.15,51.22,0000 0000 0000 0000 000000
2017-01-07 10:20:55,0.34,17.01,0.00,15.67,19.69,23.46,15.13,52.87,1024.43,2050.99,778.02,1035.26,1163.19,599.75,615.58,51.27,0000 0000 0000 0000 000000
2017-01-07 10:25:56,0.33,17.02,0.00,15.67,19.69,23.44,15.19,52.92,1024.44,2050.99,777.14,1034.65,1162.46,600.51,616.29,51.32,0000 0000 0000 0000 000000
2017-01-07 10:30:58,0.26,17.04,0.00,15.69,19.69,23.44,15.12,53.08,1024.44,2050.98,776.24,1034.00,1161.70,600.06,615.77,51.37,0000 0000 0000 0000 000000
2017-01-07 10:35:59,0.30,17.05,0.00,15.68,19.70,23.41,15.19,53.31,1024.43,2050.99,775.59,1033.20,1160.96,600.02,615.96,51.42,0000 0000 0000 0000 000000
2017-01-07 10:41:00,0.26,17.07,0.00,15.67,19.70,23.46,15.10,53.12,1024.44,2050.99,774.82,1032.68,1160.10,599.64,615.66,51.47,0000 0000 0000 0000 000000
2017-01-07 10:46:02,0.25,17.09,0.00,15.68,19.71,23.41,15.12,53.00,1024.43,2050.98,774.03,1031.99,1159.32,599.88,615.65,51.52,0000 0000 0000 0000 000000
2017-01-07 10:51:03,0.36,17.10,0.00,15.69,19.72,23.47,15.04,52.86,1024.43,2050.98,773.22,1031.16,1158.56,599.63,615.43,51.57,0000 0000 0000 0000 000000
2017-01-07 10:56:04,0.26,17.11,0.00,15.69,19.72,23.38,15.06,52.81,1024.43,2050.98,772.65,1030.65,1157.75,599.96,615.68,51.62,0000 0000 0000 0000 000000
2017-01-07 11:01:05,0.32,17.13,0.00,15.69,19.72,23.45,15.07,52.89,1024.43,2050.97,771.62,1029.87,1156.91,599.88,615.75,51.67,0000 0000 0000 0000 000000
2017-01-07 11:06:07,0.30,17.15,0.00,15.69,19.72,23.50,15.09,52.77,1024.43,2050.98,770.74,1029.05,1156.03,599.76,615.60,51.72,0000 0000 0000 0000 000000
2017-01-07 11:11:08,0.36,17.16,0.00,15.69,19.72,23.53,15.08,52.78,1024.43,2050.97,769.80,1028.31,1155.14,599.86,615.68,51.77,0000 0000 0000 0000 000000
2017-01-07 11:16:09,0.26,17.18,0.00,15.70,19.72,23.51,15.21,52.85,1024.43,2050.98,768.99,1027.73,1154.34,599.77,615.45,51.83,0000 0000 0000 0000 000000
2017-01-07 11:21:11,0.31,17.20,0.00,15.69,19.72,23.46,15.05,52.83,1024.43,2050.99,768.11,1027.03,1153.64,599.69,615.65,51.88,0000 0000 0000 0000 000000
2017-01-07 11:26:12,0.33,17.21,0.00,15.69,19.71,23.42,15.20,52.88,1024.40,2050.97,767.30,1026.28,1152.90,600.16,616.00,51.93,0000 0000 0000 0000 000000
2017-01-07 11:31:13,0.29,17.22,0.00,15.69,19.71,23.40,15.10,52.84,1024.29,2050.98,766.58,1025.71,1152.05,600.19,615.75,51.98,0000 0000 0000 0000 000000
2017-01-07 11:36:14,0.26,17.24,0.00,15.68,19.70,23.48,15.13,52.86,1024.38,2050.97,765.76,1025.01,1151.26,599.93,615.73,52.03,0000 0000 0000 0000 000000
2017-01-07 11:41:15,0.28,17.25,0.00,15.68,19.70,23.45,15.11,52.83,1024.22,2050.98,764.97,1024.29,1150.73,599.97,615.69,52.08,0000 0000 0000 0000 000000
2017-01-07 11:46:16,0.29,17.27,0.00,15.70,19.69,23.47,15.16,52.78,1024.12,2050.98,764.11,1023.67,1149.98,600.21,615.91,52.13,0000 0000 0000 0000 000000
2017-01-07 11:51:18,0.30,17.28,0.00,15.70,19.69,23.49,15.12,52.73,1023.97,2050.97,763.35,1023.02,1149.14,599.95,615.39,52.18,0000 0000 0000 0000 000000
2017-01-07 11:56:19,0.30,17.29,0.00,15.70,19.69,23.50,15.07,52.72,1023.96,2050.98,762.67,1022.59,1148.46,599.79,615.32,52.23,0000 0000 0000 0000 000000
2017-01-07 12:01:21,0.15,17.31,0.00,15.70,19.69,23.52,15.11,52.73,1023.96,2050.98,761.96,1021.99,1147.76,599.88,615.32,52.28,0000 0000 0000 0000 000000
2017-01-07 12:06:22,0.35,17.33,0.00,15.70,19.69,23.50,15.10,52.73,1023.94,2050.98,761.11,1021.17,1146.93,600.01,615.38,52.33,0000 0000 0000 0000 000000
2017-01-07 12:11:23,0.31,17.34,0.00,15.70,19.69,23.52,15.10,52.82,1023.94,2050.98,760.44,1020.70,1146.10,599.96,615.37,52.38,0000 0000 0000 0000 000000
2017-01-07 12:16:24,0.28,17.35,0.00,15.70,19.69,23.52,15.10,52.69,1023.94,2050.97,759.61,1020.01,1145.44,600.09,615.52,52.43,0000 0000 0000 0000 000000
2017-01-07 12:21:25,0.28,17.37,0.00,15.71,19.69,23.46,15.04,52.58,1023.94,2050.98,758.80,1019.25,1144.75,599.81,615.28,52.48,0000 0000 0000 0000 000000
2017-01-07 12:26:26,0.23,17.38,0.00,15.72,19.69,23.48,15.06,52.73,1023.93,2050.97,758.00,1018.78,1144.01,599.71,615.16,52.53,0000 0000 0000 0000 000000
2017-01-07 12:31:28,0.32,17.40,0.00,15.71,19.69,23.47,15.19,52.66,1023.94,2050.98,757.16,1018.04,1143.22,600.17,615.63,52.58,0000 0000 0000 0000 000000
2017-01-07 12:36:29,0.34,17.41,0.00,15.71,19.69,23.51,15.15,52.69,1023.92,2050.98,756.53,1017.37,1142.50,600.37,615.85,52.63,0000 0000 0000 0000 000000
2017-01-07 12:41:30,0.19,17.42,0.00,15.73,19.69,23.50,15.13,52.68,1023.80,2050.98,755.75,1016.84,1141.81,600.26,615.59,52.68,0000 0000 0000 0000 000000
2017-01-07 12:46:32,0.31,17.44,0.00,15.71,19.68,23.48,15.16,52.71,1023.64,2050.98,754.86,1016.05,1141.03,600.27,615.60,52.73,0000 0000 0000 0000 000000
2017-01-07 12:51:33,0.32,17.46,0.00,15.72,19.67,23.48,15.12,52.79,1023.58,2050.97,754.02,1015.56,1140.27,599.94,615.15,52.79,0000 0000 0000 0000 000000
2017-01-07 12:56:34,0.27,17.47,0.00,15.71,19.67,23.30,15.12,52.68,1023.58,2050.98,753.19,1014.95,1139.66,599.93,615.23,52.84,0000 0000 0000 0000 000000